Header for Extended Forecast Station List Page

Search by: ID | Name | Date | Parm | Value | Avg | % Avg
Sort by: ID | Name | Date | Parm | Value | Avg | % Avg

Enter search or view all records.

Click on id for station plot
#IDNameDateParmValueAvg% Avg
0LEOI1KOOTENAI-AT LEONIA01-22-2019DISCHARGE (KAF)1699222876
1FCFM8NF FLATHEAD-NEAR COLUMBIA FALLS01-22-2019DISCHARGE (KAF)40257969
2WGCM8MF FLATHEAD-NEAR WEST GLACIER01-22-2019DISCHARGE (KAF)38255069
3CFMM8FLATHEAD-AT COLUMBIA FALLS01-22-2019DISCHARGE (KAF)1374199869
4DLGM8CLARK FORK-AT DEER LODGE01-22-2019DISCHARGE (KAF)636892
5DRMM8CLARK FORK-NR DRUMMOND01-22-2019DISCHARGE (KAF)170MM
6RCCM8ROCK CREEK-NEAR CLINTON01-22-2019DISCHARGE (KAF)709573
7BONM8BLACKFOOT-NEAR BONNER01-22-2019DISCHARGE (KAF)30535187
8ABOM8CLARK FORK-ABOVE MISSOULA01-22-2019DISCHARGE (KAF)56567983
9BITM8BITTERROOT-NEAR MISSOULA01-22-2019DISCHARGE (KAF)38647881
10BELM8CLARK FORK-BELOW MISSOULA01-22-2019DISCHARGE (KAF)951116482
11STRM8ST. REGIS-NEAR ST. REGIS01-22-2019DISCHARGE (KAF)10916765
12SRGM8CLARK FORK-AT ST REGIS01-22-2019DISCHARGE (KAF)1346163682
13PRTI1PRIEST-NEAR PRIEST RIVER01-22-2019DISCHARGE (KAF)40446387
14SPOW1SPOKANE-AT SPOKANE01-22-2019DISCHARGE (KAF)2040MM
15SATI1ST MARIES-NEAR SANTA01-22-2019DISCHARGE (KAF)140137102
16CIBW1COLUMBIA-AT INTL BOUNDARY01-22-2019DISCHARGE (KAF)15905MM
17LAUW1KETTLE-AT LAURIER01-22-2019DISCHARGE (KAF)61281275
18TONW1OKANOGAN-NEAR TONASKET01-22-2019DISCHARGE (KAF)46159977
19PATW1METHOW-NEAR PATEROS01-22-2019DISCHARGE (KAF)21031068
20ARDW1ENTIAT-NEAR ARDENVOIR01-22-2019DISCHARGE (KAF)586688
21PESW1WENATCHEE-AT PESHASTIN01-22-2019DISCHARGE (KAF)60265991
22EASW1YAKIMA-AT EASTON01-22-2019DISCHARGE (KAF)8410085
23TNAW1TEANAWAY-BELOW FORKS01-22-2019DISCHARGE (KAF)126116108
24UMTW1YAKIMA-AT UMTANUM01-22-2019DISCHARGE (KAF)49750998
25CLFW1NACHES-NEAR CLIFFDEL01-22-2019DISCHARGE (KAF)17722977
26NACW1NACHES-NEAR NACHES01-22-2019DISCHARGE (KAF)24627390
27PARW1YAKIMA-NEAR PARKER01-22-2019DISCHARGE (KAF)48061878
28KIOW1YAKIMA-AT KIONA01-22-2019DISCHARGE (KAF)71396474
29CHEI1FALL RIVER-NEAR CHESTER01-22-2019DISCHARGE (KAF)186182102
30ANTI1HENRYS FORK-AT ST. ANTHONY01-22-2019DISCHARGE (KAF)47147699
31TEAI1TETON-NEAR ST. ANTHONY01-22-2019DISCHARGE (KAF)13315387
32REXI1HENRYS FORK-AT REXBURG01-22-2019DISCHARGE (KAF)50254991
33JKSW4SNAKE-NEAR JACKSON01-22-2019DISCHARGE (KAF)45849792
34ALPW4SNAKE-NEAR ALPINE01-22-2019DISCHARGE (KAF)61367691
35HEII1SNAKE-NEAR HEISE01-22-2019DISCHARGE (KAF)11951174102
36SIFI1SNAKE-AB EAGLE ROCK NR IDAHO FALLS01-22-2019DISCHARGE (KAF)1299131699
37SHYI1SNAKE-NEAR SHELLEY01-22-2019DISCHARGE (KAF)1206134790
38SNAI1SNAKE-AT BLACKFOOT01-22-2019DISCHARGE (KAF)1029118487
39BFTI1SNAKE-NEAR BLACKFOOT01-22-2019DISCHARGE (KAF)1013121384
40PIHI1PORTNEUF-AT POCATELLO01-22-2019DISCHARGE (KAF)729873
41MILI1SNAKE-AT MILNER01-22-2019DISCHARGE (KAF)7976010
42HOTI1BRUNEAU-NEAR HOT SPRINGS01-22-2019DISCHARGE (KAF)7111263
43SWAI1SNAKE-BELOW SWAN FALLS01-22-2019DISCHARGE (KAF)1756272564
44HWRI1BIG LOST-AT HOWELL RANCH NEAR CHILLY01-22-2019DISCHARGE (KAF)284168
45HALI1BIG WOOD-AT HAILEY01-22-2019DISCHARGE (KAF)549060
46BIGI1BOISE-AT GLENWOOD BRIDGE01-22-2019DISCHARGE (KAF)308234132
47PARI1BOISE-NEAR PARMA01-22-2019DISCHARGE (KAF)376348108
48VALO3MALHEUR-NEAR VALE01-22-2019DISCHARGE (KAF)606296
49EMMI1PAYETTE-NEAR EMMETT01-22-2019DISCHARGE (KAF)52779766
50WSRI1WEISER-NEAR WEISER01-22-2019DISCHARGE (KAF)30537382
51WEII1SNAKE-AT WEISER01-22-2019DISCHARGE (KAF)3229494965
52WHBI1SALMON-AT WHITEBIRD01-22-2019DISCHARGE (KAF)1665223774
53TRYO3GRANDE RONDE-TROY01-22-2019DISCHARGE (KAF)74597676
54ANAW1SNAKE-NEAR ANATONE01-22-2019DISCHARGE (KAF)5898950362
55ORFI1CLEARWATER-AT OROFINO01-22-2019DISCHARGE (KAF)2459259695
56SPDI1CLEARWATER-AT SPALDING01-22-2019DISCHARGE (KAF)3795447085
57TCHW1WALLA WALLA-NEAR TOUCHET01-22-2019DISCHARGE (KAF)21121996
58GIBO3UMATILLA-NEAR GIBBON01-22-2019DISCHARGE (KAF)9482115
59PDTO3UMATILLA-AT PENDLETON01-22-2019DISCHARGE (KAF)199196102
60MYKO3MCKAY CREEK-NEAR PILOT ROCK01-22-2019DISCHARGE (KAF)374190
61UMAO3UMATILLA-NEAR UMATILLA01-22-2019DISCHARGE (KAF)177177100
62MONO3NF JOHN DAY-AT MONUMENT01-22-2019DISCHARGE (KAF)32954061
63SERO3JOHN DAY-AT SERVICE CK01-22-2019DISCHARGE (KAF)49079761
64MODO3DESCHUTES-AT MOODY NR BIGGS01-22-2019DISCHARGE (KAF)1404159688
65PITW1KLICKITAT-NEAR PITT01-22-2019DISCHARGE (KAF)34650169
66HODO3HOOD-NEAR TUCKER BRIDGE01-22-2019DISCHARGE (KAF)26228791
67UNDW1WHITE SALMON-NEAR UNDERWOOD01-22-2019DISCHARGE (KAF)29335283
68LYDM8KOOTENAI-LIBBY DAM01-22-2019INFLOW (KAF)1254172773
69HHWM8SF FLATHEAD-HUNGRY HORSE DAM01-22-2019INFLOW (KAF)60580675
70KERM8FLATHEAD-KERR DAM01-22-2019INFLOW (KAF)1521257359
71NOXM8CLARK FORK-NOXON RAPIDS DAM01-22-2019INFLOW (KAF)3281519063
72CABI1CLARK FORK-CABINET GORGE DAM01-22-2019INFLOW (KAF)3660544867
73ALFW1PEND OREILLE-ALBENI FALLS DAM01-22-2019INFLOW (KAF)4641664770
74COEI1COEUR D ALENE-COEUR D ALENE LAKE01-22-2019INFLOW (KAF)2190240191
75LLKW1SPOKANE-AT LONGLAKE01-22-2019INFLOW (KAF)2409284185
76GCDW1COLUMBIA-GRAND COULEE DAM01-22-2019INFLOW (KAF)189772146188
77CHJW1COLUMBIA-CHIEF JOSEPH DAM01-22-2019INFLOW (KAF)192752481078
78WELW1COLUMBIA-WELLS DAM01-22-2019INFLOW (KAF)199312569778
79CHDW1CHELAN-LAKE CHELAN DAM01-22-2019INFLOW (KAF)29838777
80RRHW1COLUMBIA-ROCKY REACH DAM01-22-2019INFLOW (KAF)202682610478
81WANW1COLUMBIA-WANAPUM DAM01-22-2019INFLOW (KAF)208642455085
82PRWW1COLUMBIA-PRIEST RAPIDS DAM01-22-2019INFLOW (KAF)208622483084
83KEDW1YAKIMA-KEECHELUS LAKE01-22-2019INFLOW (KAF)9481117
84KADW1KACHESS-KACHESS DAM01-22-2019INFLOW (KAF)8577110
85CLUW1CLE ELUM-CLE ELUM LAKE01-22-2019INFLOW (KAF)226210108
86BUDW1BUMPING-BUMPING LAKE DAM01-22-2019INFLOW (KAF)566193
87RILW1TIETON-RIMROCK LAKE NEAR RIMROCK01-22-2019INFLOW (KAF)8611277
88IPDI1HENRYS FORK-ISLAND PARK DAM01-22-2019INFLOW (KAF)13914696
89JLKW4SNAKE-JACKSON LAKE AT DAM01-22-2019INFLOW (KAF)19023182
90PLDI1SF SNAKE-PALISADES DAM01-22-2019INFLOW (KAF)958112186
91RIDI1WILLOW CREEK-RIRIE DAM01-22-2019INFLOW (KAF)313589
92AFRI1SNAKE-AMERICAN FALLS RESERVOIR01-22-2019INFLOW (KAF)1588191583
93MACI1BIG LOST-MACKAY RESERVOIR NEAR MACKAY01-22-2019INFLOW (KAF)3632113
94MAGI1BIG WOOD-MAGIC DAM01-22-2019INFLOW (KAF)5614638
95LWRI1LITTLE WOOD-LITTLE WOOD DAM01-22-2019INFLOW (KAF)294663
96OWYO3OWYHEE-OWYHEE DAM01-22-2019INFLOW (KAF)19933859
97ARAI1SF BOISE-ANDERSON RANCH DAM01-22-2019INFLOW (KAF)18928566
98LUCI1BOISE-LUCKY PEAK DAM01-22-2019INFLOW (KAF)647MM
99WRMO3MALHEUR-WARM SPRINGS DAM01-22-2019INFLOW (KAF)437657
100BERO3MALHEUR-AGENCY VALLEY DAM01-22-2019INFLOW (KAF)254952
101BULO3BULLY CREEK-BULLY CREEK DAM01-22-2019INFLOW (KAF)4946
102CSDI1NF PAYETTE-CASCADE DAM01-22-2019INFLOW (KAF)22025985
103DEDI1DEADWOOD-NEAR LOWMAN01-22-2019INFLOW (KAF)425478
104BRNI1SNAKE-BROWNLEE DAM01-22-2019INFLOW (KAF)3576531167
105DWRI1NF CLEARWATER-DWORSHAK DAM01-22-2019INFLOW (KAF)18491845100
106LGDW1SNAKE-LOWER GRANITE DAM01-22-2019INFLOW (KAF)96931398469
107LGSW1SNAKE-LITTLE GOOSE DAM01-22-2019INFLOW (KAF)96931404069
108LMNW1SNAKE-LOWER MONUMENTAL DAM01-22-2019INFLOW (KAF)100201430670
109IHDW1SNAKE-ICE HARBOR DAM01-22-2019INFLOW (KAF)100201413571
110MCDW1COLUMBIA-MCNARY DAM01-22-2019INFLOW (KAF)316964128377
111JDAO3COLUMBIA-JOHN DAY DAM01-22-2019INFLOW (KAF)335994366577
112TDAO3COLUMBIA-THE DALLES DAM01-22-2019INFLOW (KAF)340304534475
113BONO3COLUMBIA-BONNEVILLE DAM01-22-2019INFLOW (KAF)349124811573
114HOPI1PEND OREILLE-PEND OREILLE LAKE NR HOPE01-22-2019LAKE ELEVATION (FT)MMM
115BFEI1KOOTENAI-AT BONNERS FERRY01-22-2019STAGE (FT)MMM
116SJMI1ST JOE-AT ST MARIES01-22-2019STAGE (FT)MMM